User: anonymous
Location: Bangkok
(13.7500°N, 100.5170°E)
Time: 08:56:44
(UTC+07:00)
Language:

ERBS - Orbit

View from above orbital plane
View from above orbital plane
View from above satellite
View from above satellite

Ground track
Ground track

The orbit data is extracted from the following two-line orbital elements,

1 15354U 84108B   14233.43815312  .00005599  00000-0  20719-3 0  5580
2 15354 057.0126 219.1402 0014010 339.7549 020.2943 15.29106788639607
Epoch (UTC): 21 August 2014 10:30:56
Eccentricity: 0.0014010
inclination: 57.0126°
perigee height: 469 km
apogee height: 488 km
right ascension of ascending node: 219.1402°
argument of perigee: 339.7549°
revolutions per day: 15.29106788
mean anomaly at epoch: 20.2943°
orbit number at epoch: 63960

The dashed part of the orbit path shows where the satellite is in the earth's shadow,  

DLR